Regional Weather Roundup
Issued by NWS

Home | Current Version | Previous Version | Graphics & Text | Print | Product List | Glossary On
Versions: 1 2 3 4 5 6 7 8 9 10 11 12 13 14 15 16 17 18 19 20 21 22 23 24 25 26 27 28 29 30 31 32 33 34 35 36 37 38 39 40 41 42 43 44 45 46 47 48 49 50
000
ASUS43 KLOT 010909
RWRIL

ILLINOIS REGIONAL WEATHER ROUNDUP
NATIONAL WEATHER SERVICE CHICAGO/ROMEOVILLE IL
400 AM CDT SAT OCT 01 2016

NOTE: "FAIR" INDICATES FEW OR NO CLOUDS BELOW 12,000 FEET WITH NO
SIGNIFICANT WEATHER AND/OR OBSTRUCTIONS TO VISIBILITY.

* THESE STATIONS ARE NOT UNDER NWS QUALITY CONTROL. THEY ALSO MAY NOT
  REPORT WEATHER SUCH AS PRECIPITATION OR FOG.

ILZ001-002-007-009-015-016-024-011000-
NORTHWEST ILLINOIS

CITY           SKY/WX    TMP DP  RH WIND       PRES   REMARKS
MOLINE         CLOUDY    61  58  90 N3        30.05S
STERLING*      LGT RAIN  60  59  96 NE6       30.04F
SAVANNA*       CLOUDY    59  58  96 N5        30.05S
$$

ILZ003-004-008-010-011-017-018-011000-
NORTH CENTRAL ILLINOIS

CITY           SKY/WX    TMP DP  RH WIND       PRES   REMARKS
ROCKFORD       CLOUDY    61  59  93 N7        30.06F FOG
FREEPORT*      CLOUDY    58  57  97 N5        30.07S
ROCHELLE*      CLOUDY    59  59  99 NE5       30.05S
DE KALB*       CLOUDY    59  59  97 NE5       30.06R FOG
$$

ILZ005-006-012>014-019>023-011000-
NORTHEAST ILLINOIS

CITY           SKY/WX    TMP DP  RH WIND       PRES   REMARKS
CHICAGO-OHARE  MOCLDY    59  56  89 NE5       30.04S
CHICAGO-MIDWAY PTCLDY    59  55  87 NE6       30.03S
AURORA         CLOUDY    61  59  93 NE6       30.04S
LANSING*       MOCLDY    56  56 100 CALM      30.02F
JOLIET*        PTCLDY    59  58  94 CALM      30.02F
WAUKEGAN       CLOUDY    58  57  97 CALM      30.04F
DUPAGE AIRPORT PTCLDY    58  55  90 N5        30.03F
KANKAKEE*      CLOUDY    58  57  97 CALM      30.02F
WHEELING       PTCLDY    58  56  93 NE3       30.06S
MORRIS*        CLOUDY    60  58  92 CALM      30.02S
ROMEOVILLE*    CLEAR     56  56 100 NE5       30.03S
NORTHERLY ISL    N/A     60  57  89 NE2         N/A
$$

LMZ740>746-011000-
SOUTHERN LAKE MICHIGAN

STATION/POSITION SKY/WX   TEMP    WIND        PRES    VSBY  WAVE
                          AIR SEA DIR/SP/G                  HT/PER
                          (F)     (DEG/KT/KT) (MB)    (MI)  (FT/S)
SOUTHERN BUOY              62 67  100/  6/  8 1016.7F         4/ 6
WILMETTE HARBOR            60 59   90/  2/  6   N/A           3/ 6
HARRISON CRIB              63      70/ 10/ 11   N/A
BURNHAM HARBOR             60      60/  4/  6   N/A
CALUMET HARBOR             61      30/  3/  5 1016.2S
BURNS HARBOR               62      50/ 10/ 12 1016.9F
MICHIGAN CITY              60     360/ 11/ 12   N/A
MICHIGAN CITY 6N           62 64   10/ 10/ 12   N/A           3/ 6
ST. JOSEPH                 55 52   20/  8/ 10 1016.7          2/ 6
$$

ILZ025>027-034>036-040-047-049-050-058-095>099-011000-
WEST-CENTRAL ILLINOIS

CITY           SKY/WX    TMP DP  RH WIND       PRES   REMARKS
QUINCY         CLOUDY    61  59  93 NW8       30.05S
GALESBURG*     CLOUDY    59  58  97 N6        30.04S
MACOMB*        CLOUDY    60  59  95 N9        30.06F
JACKSONVILLE*  CLOUDY    61  60  96 NW6       30.02F
PITTSFIELD*    CLOUDY    61  60  95 NW7       30.05S
$$

ILZ028>032-037-038-041>044-048-051>054-059>061-011000-
CENTRAL ILLINOIS

CITY           SKY/WX    TMP DP  RH WIND       PRES   REMARKS
PONTIAC        CLOUDY    60  60 100 N3        30.03S FOG
BLOOMINGTON    CLOUDY    59  58  96 N8        30.02S FOG
DECATUR        CLOUDY    62  59  90 N6        30.00S
PEORIA         CLOUDY    61  61 100 N5        30.02S
LACON*         CLOUDY    60  59  96 N3        30.02S
LINCOLN*       CLOUDY    61  61 100 N5        30.01S FOG
SPRINGFIELD    CLOUDY    62  60  93 N5        30.01S FOG
TAYLORVILLE    RAIN      60  60  99 N6        30.00S
$$

ILZ033-039-045-046-055>057-062-063-011000-
EAST-CENTRAL ILLINOIS

CITY           SKY/WX    TMP DP  RH WIND       PRES   REMARKS
CHAMPAIGN      CLOUDY    60  58  92 N6        29.99F
RANTOUL*       CLOUDY    61  60  96 NE6       30.00R FOG
MATTOON        CLOUDY    59  57  93 NW3       29.98S
PARIS*         CLOUDY    57  57 100 CALM      30.00R
$$

ILZ079-100>102-011000-
SOUTHWEST ILLINOIS

CITY           SKY/WX    TMP DP  RH WIND       PRES   REMARKS
ALTON          CLOUDY    60  60  97 NW6       30.01S FOG
BELLEVILLE     PTCLDY    62  62 100 NW8       30.00R
CAHOKIA*       CLOUDY    63  59  87 NW8       30.02R
SPARTA*        CLOUDY    61  60  97 NW5       30.02R
$$

ILZ064>066-069>071-074>076-080>082-084>086-088>090-092>094-011000-
SOUTH-CENTRAL ILLINOIS

CITY           SKY/WX    TMP DP  RH WIND       PRES   REMARKS
CARBONDALE     CLOUDY    61  61 100 W5        30.01R
CAIRO*         CLOUDY    60  59  97 W6        30.02S
EFFINGHAM*     CLOUDY    60  60 100 CALM      30.00S FOG
MARION         CLOUDY    63  63 100 CALM      30.01S FOG
MT. VERNON     CLOUDY    63  55  77 CALM      30.00R
CENTRALIA*     RAIN      62  62 100 NW5       29.99R
SALEM*         RAIN      63  61  94 CALM      29.98S
METROPOLIS*    CLOUDY    62  60  95 CALM      30.01S
$$

ILZ067-068-072-073-078-083-087-091-011000-
SOUTHEAST ILLINOIS

CITY           SKY/WX    TMP DP  RH WIND       PRES   REMARKS
LAWRENCEVILLE  CLOUDY    56  54  93 E3        29.99S
FLORA*         CLOUDY    62  61  97 CALM      29.99S FOG
FAIRFIELD*     CLOUDY    60  60 100 CALM      29.97S
HARRISBURG*    CLOUDY    60  60 100 W3        30.00R FOG
ROBINSON*      CLOUDY    56  55  99 SE3       30.00S
CARMI*         LGT RAIN  58  58 100 CALM      29.98S
$$

ABBREVIATIONS USED IN REMARKS
   TC - TEMPERATURE IN CELSIUS
  WCI - WIND CHILL INDEX
   HX - HEAT INDEX
  VSB - VISIBILITY
$$





USA.gov is the U.S. government's official web portal to all federal, state and local government web resources and services.